TimeCST,TemperatureF,Dew PointF,Humidity,Sea Level PressureIn,VisibilityMPH,Wind Direction,Wind SpeedMPH,Gust SpeedMPH,PrecipitationIn,Events,Conditions,WindDirDegrees,DateUTC
12:53 AM,44.1,39.0,82,30.17,10.0,Calm,Calm,-,N/A,,Clear,0,2012-11-08 06:53:00
1:53 AM,43.0,37.9,82,30.18,10.0,Calm,Calm,-,N/A,,Clear,0,2012-11-08 07:53:00
2:53 AM,41.0,37.9,89,30.18,10.0,Calm,Calm,-,N/A,,Clear,0,2012-11-08 08:53:00
3:53 AM,39.9,37.9,93,30.19,10.0,Calm,Calm,-,N/A,,Clear,0,2012-11-08 09:53:00
4:53 AM,39.0,37.0,93,30.20,10.0,Calm,Calm,-,N/A,,Clear,0,2012-11-08 10:53:00
5:53 AM,39.0,37.0,93,30.22,10.0,Calm,Calm,-,N/A,,Clear,0,2012-11-08 11:53:00
6:53 AM,39.9,37.0,89,30.23,10.0,NE,3.5,-,N/A,,Clear,50,2012-11-08 12:53:00
7:53 AM,46.9,39.0,74,30.27,10.0,East,3.5,-,N/A,,Clear,80,2012-11-08 13:53:00
8:53 AM,53.1,39.0,59,30.27,10.0,East,8.1,-,N/A,,Clear,80,2012-11-08 14:53:00
9:53 AM,57.9,37.9,47,30.27,10.0,East,5.8,-,N/A,,Clear,80,2012-11-08 15:53:00
10:53 AM,-9999,-9999,N/A,30.26,10.0,Calm,Calm,-,N/A,,Clear,0,2012-11-08 16:53:00
11:53 AM,63.0,36.0,37,30.24,10.0,ENE,5.8,-,N/A,,Clear,70,2012-11-08 17:53:00
12:53 PM,66.0,36.0,33,30.21,10.0,North,-9999.0,-,N/A,,Clear,0,2012-11-08 18:53:00
1:53 PM,66.0,37.0,34,30.18,10.0,ESE,4.6,-,N/A,,Clear,110,2012-11-08 19:53:00
2:53 PM,66.9,37.0,33,30.17,10.0,NE,3.5,-,N/A,,Clear,50,2012-11-08 20:53:00
3:53 PM,66.0,37.9,36,30.17,10.0,East,5.8,-,N/A,,Clear,80,2012-11-08 21:53:00
4:53 PM,62.1,39.0,43,30.17,10.0,East,4.6,-,N/A,,Clear,80,2012-11-08 22:53:00
5:53 PM,55.9,43.0,62,30.18,10.0,Calm,Calm,-,N/A,,Clear,0,2012-11-08 23:53:00
6:53 PM,52.0,44.1,74,30.19,10.0,Calm,Calm,-,N/A,,Clear,0,2012-11-09 00:53:00
7:53 PM,50.0,44.1,80,30.20,10.0,Calm,Calm,-,N/A,,Clear,0,2012-11-09 01:53:00
8:53 PM,51.1,43.0,74,30.20,10.0,Calm,Calm,-,N/A,,Clear,0,2012-11-09 02:53:00
9:53 PM,48.0,44.1,86,30.21,10.0,Calm,Calm,-,N/A,,Clear,0,2012-11-09 03:53:00
10:53 PM,46.0,43.0,89,30.20,10.0,Calm,Calm,-,N/A,,Clear,0,2012-11-09 04:53:00
11:53 PM,46.0,42.1,86,30.19,10.0,Calm,Calm,-,N/A,,Clear,0,2012-11-09 05:53:00